Terug naar catalogus

LEMUR-2 FIKRETDENGIZ

ActiefWetenschapSSO
NORAD 67363·PAYLOAD·🇺🇸 United States

Gelanceerd Jan 11, 2026 vanaf Vandenberg Space Force Base

Loading…

Volgende Passages (komende 24 uur)

TLE

VersSource: Space-Track

Epoch: Sep 14, 2026, 11:11 UTC

1 67363U 26004A   26257.46653878  .00003160  00000-0  34252-3 0  9995
2 67363  97.8083 254.7183 0007971 195.4172 164.6804 14.88890026 36560

Volg LEMUR-2 FIKRETDENGIZ in realtime met AllMySat

Download on the App Store